| time (UTC) | temp C | wind direction | speed KPH | gust KPH | rain 1hr cm | rain 24hr cm | rain mn cm | humidity % | barometer mb |
| 20260901075203 | 17 | 277 | 9.7 | 30.6 | 0.03 | 0.48 | 0.05 | 89 | 1013.1 |
| 20260901074205 | 17 | 255 | 11.3 | 27.4 | 0.00 | 0.48 | 0.05 | 88 | 1013.1 |
| 20260901073219 | 17 | 270 | 8.0 | 19.3 | 0.00 | 0.48 | 0.05 | 88 | 1012.9 |
| 20260901072206 | 17 | 184 | 8.0 | 19.3 | 0.00 | 0.48 | 0.05 | 90 | 1012.8 |
| 20260901071205 | 17 | 218 | 9.7 | 20.9 | 0.00 | 0.48 | 0.05 | 90 | 1012.8 |
| 20260901070203 | 16 | 215 | 6.4 | 19.3 | 0.00 | 0.48 | 0.05 | 91 | 1012.7 |
| 20260901065204 | 16 | 252 | 9.7 | 20.9 | 0.00 | 0.48 | 0.05 | 93 | 1012.6 |
| 20260901064204 | 16 | 269 | 9.7 | 17.7 | 0.00 | 0.48 | 0.05 | 94 | 1012.6 |
| 20260901063203 | 16 | 266 | 6.4 | 16.1 | 0.00 | 0.48 | 0.05 | 95 | 1012.5 |
| 20260901062203 | 15 | 213 | 3.2 | 16.1 | 0.00 | 0.48 | 0.05 | 96 | 1012.4 |
| 20260901061203 | 15 | 254 | 3.2 | 14.5 | 0.00 | 0.48 | 0.05 | 96 | 1012.3 |
| 20260901060207 | 15 | 198 | 4.8 | 12.9 | 0.00 | 0.48 | 0.05 | 96 | 1012.2 |
| 20260901055212 | 14 | 216 | 3.2 | 12.9 | 0.00 | 0.48 | 0.05 | 96 | 1012.2 |
| 20260901054212 | 14 | 203 | 3.2 | 8.0 | 0.00 | 0.48 | 0.05 | 96 | 1012.2 |
| 20260901053206 | 14 | 213 | 4.8 | 8.0 | 0.00 | 0.51 | 0.05 | 96 | 1012.1 |
| 20260901052207 | 14 | 197 | 3.2 | 8.0 | 0.00 | 0.61 | 0.05 | 96 | 1012.1 |
| 20260901051205 | 14 | 202 | 4.8 | 8.0 | 0.00 | 0.64 | 0.05 | 96 | 1012.0 |
| 20260901050205 | 14 | 218 | 3.2 | 11.3 | 0.00 | 0.64 | 0.05 | 96 | 1012.0 |
| 20260901045203 | 14 | 221 | 4.8 | 11.3 | 0.00 | 0.64 | 0.05 | 96 | 1011.9 |
| 20260901044204 | 14 | 221 | 4.8 | 8.0 | 0.00 | 0.64 | 0.05 | 96 | 1011.8 |
| 20260901043205 | 14 | 218 | 1.6 | 6.4 | 0.00 | 0.64 | 0.05 | 96 | 1011.7 |
| 20260901042206 | 14 | 219 | 1.6 | 6.4 | 0.00 | 0.64 | 0.05 | 96 | 1011.6 |
| 20260901041205 | 14 | 220 | 1.6 | 6.4 | 0.00 | 0.64 | 0.05 | 96 | 1011.6 |
| 20260901040204 | 14 | 216 | 3.2 | 8.0 | 0.00 | 0.64 | 0.05 | 96 | 1011.6 |
| 20260901035207 | 14 | 219 | 1.6 | 6.4 | 0.00 | 0.64 | 0.05 | 96 | 1011.6 |
| 20260901034646 | 14 | 223 | 3.2 | 8.0 | 0.00 | 0.64 | 0.05 | 96 | 1011.5 |
| 20260901033207 | 14 | 229 | 3.2 | 8.0 | 0.00 | 0.64 | 0.05 | 96 | 1011.5 |
| 20260901032206 | 14 | 215 | 4.8 | 8.0 | 0.00 | 0.64 | 0.05 | 96 | 1011.4 |
| 20260901031207 | 14 | 222 | 4.8 | 11.3 | 0.00 | 0.64 | 0.05 | 96 | 1011.3 |
| 20260901030209 | 14 | 227 | 4.8 | 8.0 | 0.00 | 0.64 | 0.05 | 96 | 1011.3 |
| 20260901025205 | 14 | 245 | 3.2 | 6.4 | 0.00 | 0.64 | 0.05 | 96 | 1011.2 |
| 20260901024205 | 15 | 226 | 3.2 | 12.9 | 0.00 | 0.64 | 0.05 | 96 | 1011.2 |
| 20260901023206 | 15 | 239 | 4.8 | 11.3 | 0.00 | 0.64 | 0.05 | 96 | 1011.2 |
| 20260901022208 | 15 | 259 | 1.6 | 8.0 | 0.03 | 0.64 | 0.05 | 96 | 1011.2 |
| 20260901021206 | 15 | 242 | 4.8 | 14.5 | 0.03 | 0.64 | 0.05 | 96 | 1011.2 |
| 20260901020208 | 15 | 255 | 4.8 | 14.5 | 0.03 | 0.64 | 0.05 | 96 | 1011.1 |
| 20260901015206 | 15 | 259 | 3.2 | 12.9 | 0.03 | 0.61 | 0.05 | 96 | 1010.9 |
| 20260901014207 | 15 | 267 | 4.8 | 19.3 | 0.03 | 0.61 | 0.05 | 97 | 1010.7 |
| 20260901013207 | 15 | 229 | 6.4 | 12.9 | 0.03 | 0.61 | 0.05 | 97 | 1010.7 |
| 20260901012207 | 15 | 214 | 3.2 | 16.1 | 0.00 | 0.61 | 0.03 | 97 | 1010.6 |
| 20260901011208 | 15 | 234 | 3.2 | 12.9 | 0.00 | 0.61 | 0.03 | 97 | 1010.4 |
| 20260901010645 | 15 | 266 | 3.2 | 11.3 | 0.00 | 0.61 | 0.03 | 97 | 1010.4 |
| 20260901005210 | 15 | 238 | 3.2 | 11.3 | 0.00 | 0.64 | 0.03 | 97 | 1010.4 |
| 20260901004207 | 15 | 220 | 4.8 | 11.3 | 0.00 | 0.71 | 0.03 | 97 | 1010.3 |
| 20260901003208 | 15 | 244 | 4.8 | 8.0 | 0.03 | 0.74 | 0.03 | 97 | 1010.3 |
| 20260901002647 | 15 | 232 | 4.8 | 8.0 | 0.03 | 0.79 | 0.03 | 97 | 1010.3 |
| 20260901001208 | 14 | 215 | 3.2 | 8.0 | 0.03 | 0.79 | 0.03 | 97 | 1010.2 |
| 20260901000207 | 14 | 221 | 3.2 | 8.0 | 0.03 | 0.79 | 0.03 | 97 | 1010.2 |
| 20260831235207 | 14 | 219 | 4.8 | 8.0 | 0.03 | 0.79 | 0.03 | 97 | 1010.1 |
| 20260831234207 | 14 | 202 | 4.8 | 11.3 | 0.03 | 0.79 | 0.03 | 97 | 1010.0 |
| 20260831233208 | 14 | 217 | 6.4 | 12.9 | 0.00 | 0.79 | 0.00 | 97 | 1010.0 |
| 20260831232207 | 14 | 205 | 3.2 | 8.0 | 0.00 | 0.79 | 0.00 | 96 | 1009.8 |
| 20260831231206 | 14 | 202 | 3.2 | 8.0 | 0.00 | 0.79 | 0.00 | 97 | 1009.8 |
| 20260831230207 | 14 | 213 | 4.8 | 11.3 | 0.00 | 0.79 | 0.00 | 96 | 1009.8 |
| 20260831225207 | 14 | 197 | 8.0 | 14.5 | 0.00 | 0.79 | 0.00 | 96 | 1009.8 |
| 20260831224206 | 14 | 207 | 4.8 | 16.1 | 0.00 | 0.79 | 0.00 | 96 | 1009.8 |
| 20260831223207 | 14 | 210 | 4.8 | 11.3 | 0.03 | 0.79 | 0.00 | 96 | 1009.6 |
| 20260831222645 | 14 | 195 | 1.6 | 6.4 | 0.03 | 0.79 | 0.00 | 96 | 1009.6 |
| 20260831221207 | 14 | 186 | 6.4 | 12.9 | 0.03 | 0.79 | 0.00 | 96 | 1009.6 |
| 20260831220224 | 13 | 197 | 6.4 | 14.5 | 0.03 | 0.79 | 0.00 | 96 | 1009.5 |
| 20260831215207 | 13 | 198 | 6.4 | 8.0 | 0.03 | 0.76 | 0.79 | 95 | 1009.6 |
| 20260831214208 | 13 | 196 | 4.8 | 11.3 | 0.03 | 0.76 | 0.79 | 95 | 1009.5 |
| 20260831213207 | 13 | 200 | 4.8 | 11.3 | 0.00 | 0.76 | 0.76 | 95 | 1009.3 |
| 20260831212642 | 13 | 187 | 4.8 | 12.9 | 0.00 | 0.76 | 0.76 | 95 | 1009.3 |
| 20260831211206 | 13 | 207 | 6.4 | 11.3 | 0.00 | 0.76 | 0.76 | 94 | 1009.2 |
| 20260831210209 | 13 | 194 | 6.4 | 14.5 | 0.00 | 0.76 | 0.76 | 94 | 1009.2 |
| 20260831205207 | 13 | 198 | 4.8 | 11.3 | 0.00 | 0.76 | 0.76 | 94 | 1009.0 |
| 20260831204208 | 14 | 203 | 6.4 | 12.9 | 0.00 | 0.76 | 0.76 | 93 | 1009.0 |
| 20260831203208 | 14 | 181 | 6.4 | 12.9 | 0.00 | 0.76 | 0.76 | 93 | 1008.9 |
| 20260831202644 | 14 | 184 | 4.8 | 14.5 | 0.00 | 0.76 | 0.76 | 93 | 1008.9 |
| 20260831201206 | 14 | 202 | 6.4 | 12.9 | 0.00 | 0.76 | 0.76 | 92 | 1008.9 |
| 20260831200210 | 14 | 197 | 6.4 | 12.9 | 0.00 | 0.76 | 0.76 | 92 | 1008.8 |
| 20260831195209 | 15 | 175 | 6.4 | 16.1 | 0.00 | 0.76 | 0.76 | 92 | 1008.7 |
| 20260831194207 | 15 | 185 | 8.0 | 14.5 | 0.00 | 0.76 | 0.76 | 91 | 1008.6 |
| 20260831193207 | 15 | 214 | 4.8 | 14.5 | 0.00 | 0.76 | 0.76 | 91 | 1008.4 |
| 20260831192207 | 15 | 190 | 8.0 | 16.1 | 0.00 | 0.76 | 0.76 | 90 | 1008.3 |
| 20260831191208 | 15 | 193 | 8.0 | 12.9 | 0.00 | 0.76 | 0.76 | 91 | 1008.4 |
| 20260831190221 | 15 | 199 | 4.8 | 6.4 | 0.00 | 0.76 | 0.76 | 90 | 1008.4 |
| 20260831185653 | 15 | 212 | 4.8 | 8.0 | 0.00 | 0.76 | 0.76 | 90 | 1008.2 |
| 20260831184207 | 15 | 209 | 3.2 | 8.0 | 0.00 | 0.76 | 0.76 | 90 | 1008.1 |
| 20260831183210 | 16 | 210 | 4.8 | 8.0 | 0.00 | 0.76 | 0.76 | 90 | 1008.1 |
| 20260831182218 | 16 | 202 | 4.8 | 8.0 | 0.00 | 0.76 | 0.76 | 89 | 1008.0 |
| 20260831181207 | 16 | 200 | 4.8 | 11.3 | 0.00 | 0.76 | 0.76 | 89 | 1007.9 |
| 20260831180208 | 16 | 198 | 4.8 | 8.0 | 0.00 | 0.76 | 0.76 | 89 | 1007.8 |
| 20260831175210 | 16 | 204 | 6.4 | 14.5 | 0.00 | 0.76 | 0.76 | 90 | 1007.6 |
| 20260831174210 | 16 | 198 | 6.4 | 11.3 | 0.00 | 0.76 | 0.76 | 90 | 1007.4 |
| 20260831173210 | 16 | 218 | 4.8 | 12.9 | 0.00 | 0.76 | 0.76 | 90 | 1007.4 |
| 20260831172647 | 16 | 217 | 8.0 | 12.9 | 0.00 | 0.76 | 0.76 | 90 | 1007.4 |
| 20260831171220 | 16 | 198 | 6.4 | 12.9 | 0.00 | 0.76 | 0.76 | 89 | 1007.3 |
| 20260831170207 | 16 | 196 | 9.7 | 17.7 | 0.00 | 0.76 | 0.76 | 89 | 1007.2 |
| 20260831165643 | 16 | 186 | 9.7 | 19.3 | 0.00 | 0.76 | 0.76 | 88 | 1007.2 |
| 20260831164207 | 16 | 200 | 8.0 | 14.5 | 0.00 | 0.76 | 0.76 | 89 | 1007.0 |
| 20260831163209 | 16 | 194 | 6.4 | 17.7 | 0.00 | 0.76 | 0.76 | 89 | 1007.0 |
| 20260831162206 | 16 | 196 | 6.4 | 17.7 | 0.05 | 0.76 | 0.76 | 89 | 1007.0 |
| 20260831161207 | 16 | 184 | 6.4 | 12.9 | 0.08 | 0.76 | 0.76 | 90 | 1007.1 |
| 20260831160209 | 16 | 193 | 8.0 | 16.1 | 0.10 | 0.76 | 0.76 | 91 | 1007.1 |
| 20260831155207 | 15 | 194 | 8.0 | 16.1 | 0.13 | 0.66 | 0.76 | 90 | 1007.1 |
| 20260831154211 | 15 | 211 | 4.8 | 19.3 | 0.13 | 0.66 | 0.76 | 90 | 1007.2 |
| 20260831153659 | 16 | 203 | 9.7 | 25.7 | 0.13 | 0.66 | 0.76 | 89 | 1007.4 |
| 20260831152210 | 16 | 177 | 8.0 | 20.9 | 0.08 | 0.66 | 0.71 | 87 | 1007.3 |
| 20260831151207 | 16 | 251 | 8.0 | 20.9 | 0.05 | 0.66 | 0.69 | 86 | 1007.1 |
| 20260831150210 | 17 | 205 | 11.3 | 27.4 | 0.03 | 0.66 | 0.66 | 85 | 1007.2 |
| 20260831145207 | 17 | 228 | 11.3 | 25.7 | 0.00 | 0.64 | 0.64 | 84 | 1007.1 |
| 20260831144202 | 18 | 263 | 8.0 | 16.1 | 0.05 | 0.64 | 0.64 | 84 | 1007.0 |
| 20260831143219 | 18 | 259 | 3.2 | 12.9 | 0.05 | 0.64 | 0.64 | 85 | 1006.9 |
| 20260831142215 | 18 | 242 | 6.4 | 16.1 | 0.05 | 0.64 | 0.64 | 86 | 1007.0 |
| 20260831141200 | 18 | 200 | 4.8 | 11.3 | 0.05 | 0.64 | 0.64 | 85 | 1007.0 |
| 20260831140605 | 18 | 231 | 4.8 | 20.9 | 0.05 | 0.64 | 0.64 | 84 | 1006.7 |
| 20260831135606 | 18 | 249 | 6.4 | 20.9 | 0.05 | 0.61 | 0.64 | 82 | 1006.7 |
| 20260831134616 | 19 | 237 | 14.5 | 27.4 | 0.00 | 0.61 | 0.61 | 77 | 1006.8 |
| 20260831133620 | 20 | 275 | 14.5 | 32.2 | 0.00 | 0.61 | 0.61 | 74 | 1006.8 |
| 20260831132619 | 20 | 288 | 8.0 | 27.4 | 0.00 | 0.61 | 0.61 | 68 | 1006.5 |
| 20260831131610 | 21 | 274 | 12.9 | 25.7 | 0.03 | 0.61 | 0.61 | 73 | 1006.5 |
| 20260831130607 | 21 | 219 | 16.1 | 29.0 | 0.03 | 0.61 | 0.61 | 72 | 1006.2 |
| 20260831130042 | 21 | 200 | 14.5 | 30.6 | 0.03 | 0.58 | 0.61 | 76 | 1006.2 |
| 20260831124606 | 21 | 207 | 17.7 | 30.6 | 0.03 | 0.58 | 0.61 | 78 | 1006.1 |
| 20260831124057 | 20 | 232 | 9.7 | 22.5 | 0.03 | 0.58 | 0.61 | 85 | 1006.1 |
| 20260831122608 | 18 | 212 | 9.7 | 33.8 | 0.23 | 0.58 | 0.61 | 84 | 1006.1 |
| 20260831121607 | 19 | 204 | 9.7 | 20.9 | 0.23 | 0.58 | 0.58 | 86 | 1006.0 |
| 20260831120605 | 20 | 194 | 11.3 | 25.7 | 0.23 | 0.58 | 0.58 | 85 | 1005.9 |
| 20260831115606 | 20 | 201 | 4.8 | 12.9 | 0.23 | 0.36 | 0.58 | 89 | 1006.1 |
| 20260831115044 | 19 | 244 | 6.4 | 14.5 | 0.23 | 0.36 | 0.58 | 83 | 1006.3 |
| 20260831113608 | 18 | 234 | 4.8 | 25.7 | 0.23 | 0.36 | 0.58 | 86 | 1006.3 |
| 20260831112610 | 21 | 196 | 19.3 | 41.8 | 0.03 | 0.36 | 0.38 | 76 | 1006.4 |
| 20260831111607 | 21 | 209 | 17.7 | 30.6 | 0.03 | 0.36 | 0.36 | 73 | 1005.9 |
| 20260831110605 | 22 | 209 | 17.7 | 30.6 | 0.03 | 0.36 | 0.36 | 68 | 1006.0 |
| 20260831104605 | 20 | 167 | 17.7 | 37.0 | 0.03 | 0.33 | 0.36 | 79 | 1006.2 |
| 20260831102556 | 20 | 244 | 11.3 | 22.5 | 0.03 | 0.33 | 0.36 | 82 | 1006.5 |
| 20260831101557 | 20 | 204 | 12.9 | 20.9 | 0.00 | 0.33 | 0.33 | 75 | 1006.5 |
| 20260831100552 | 21 | 226 | 14.5 | 32.2 | 0.00 | 0.33 | 0.33 | 74 | 1006.4 |
| 20260831095547 | 20 | 223 | 8.0 | 20.9 | 0.00 | 0.33 | 0.33 | 79 | 1006.3 |
| 20260831094544 | 20 | 186 | 11.3 | 17.7 | 0.00 | 0.33 | 0.33 | 79 | 1006.5 |
| 20260831093544 | 20 | 217 | 8.0 | 17.7 | 0.00 | 0.33 | 0.33 | 79 | 1006.6 |
| 20260831092543 | 19 | 205 | 12.9 | 27.4 | 0.00 | 0.33 | 0.33 | 81 | 1006.6 |
| 20260831091541 | 19 | 253 | 6.4 | 16.1 | 0.00 | 0.33 | 0.33 | 82 | 1006.7 |
| 20260831090537 | 19 | 213 | 12.9 | 17.7 | 0.00 | 0.36 | 0.33 | 83 | 1006.8 |
| 20260831085537 | 18 | 207 | 11.3 | 17.7 | 0.00 | 0.36 | 0.33 | 83 | 1006.7 |
| 20260831084533 | 19 | 193 | 11.3 | 22.5 | 0.00 | 0.38 | 0.33 | 83 | 1006.9 |
| 20260831083534 | 19 | 207 | 9.7 | 20.9 | 0.00 | 0.38 | 0.33 | 84 | 1006.7 |
| 20260831082532 | 18 | 225 | 11.3 | 25.7 | 0.00 | 0.38 | 0.33 | 86 | 1006.8 |
| 20260831082020 | 18 | 206 | 8.0 | 19.3 | 0.00 | 0.38 | 0.33 | 87 | 1006.8 |
| 20260831075523 | 18 | 217 | 9.7 | 19.3 | 0.00 | 0.38 | 0.33 | 89 | 1006.7 |